Flag for Austria Weather past 2 weeks in Enns, Upper Austria, Austria

Now
73 °F

Sunny.


Feels Like: 76 °F
Forecast: 60 / 90 °F
Wind: N/A

Location: Linz / Hoersching-Flughafen

Current Time: Jul 3, 2015 at 10:22:33 AM

Latest Report: Jul 3, 2015 at 9:00 AM


Visibility: 25 mi

Pressure: 30.27 "Hg

Humidity: 59%

Dew point: 57 °F

Location of EnnsLocation

Historic Weather in Enns — Graph

°F

Enns temperature yesterday

Maximum temperature yesterday: 85 °F (at 4:00 PM)
Minimum temperature yesterday: 61 °F (at 5:00 AM)
Average temperature yesterday: 74 °F

Past Weeks' High & Low Weather Summary

 TemperatureHumidityPressure
High85 °F (Jul 2, 4:00 PM)98% (Jun 25, 5:00 AM)30.27 "Hg (Jun 25, 5:00 AM)
Low47 °F (Jun 25, 6:00 AM)35% (Jul 1, 4:00 PM)29.72 "Hg (Jun 23, 2:00 AM)
Average63 °F72%30.09 "Hg
* Reported Jun 18 9:00 AM — Jul 3 9:00 AM, Enns, Weather by CustomWeather, © 2015

Note: Actual official high and low records may vary slightly from our data, if they occured in-between our weather recording intervals... More about our weather records

Advertising

Enns weather history for previous 24 hours

 ConditionsComfort  
Time TempWeatherWind HumidityBarometerVisibility
9:00 AM
Fri, Jul 3
73 °FSunny.N/A59%30.27 "Hg25 mi
8:00 AM71 °FSunny.N/A63%30.27 "Hg11 mi
7:00 AM67 °FSunny.N/A81%30.27 "Hg7 mi
6:00 AM62 °FSunny.N/A88%30.27 "Hg9 mi
5:00 AM62 °FClear.N/A87%30.25 "Hg11 mi
4:00 AM62 °FClear.N/A86%30.24 "Hg10 mi
3:00 AM65 °FMild.N/A79%30.24 "Hg16 mi
2:00 AM68 °FMild.N/A74%30.22 "Hg19 mi
1:00 AM69 °FMild.N/A73%30.22 "Hg22 mi
12:00 AM72 °FMild.N/A66%30.22 "Hg19 mi
11:00 PM
Thu, Jul 2
71 °FPassing clouds.N/A72%30.21 "Hg19 mi
10:00 PM75 °FClear.N/A60%30.19 "Hg22 mi
9:00 PM78 °FSunny.N/A56%30.16 "Hg16 mi
8:00 PM82 °FPassing clouds.N/A48%30.14 "Hg18 mi
7:00 PM83 °FPassing clouds.3 mph46%30.13 "Hg25 mi
6:00 PM85 °FPassing clouds.5 mph43%30.12 "Hg12 mi
5:00 PM85 °FPassing clouds.N/A42%30.13 "Hg25 mi
4:00 PM85 °FPassing clouds.5 mph43%30.13 "Hg22 mi
3:00 PM84 °FPassing clouds.5 mph42%30.14 "Hg15 mi
2:00 PM82 °FPassing clouds.6 mph48%30.15 "Hg16 mi
1:00 PM80 °FPassing clouds.6 mph47%30.16 "Hg7 mi
12:00 PM79 °FPassing clouds.5 mph50%30.17 "Hg16 mi
11:00 AM77 °FSunny.3 mph54%30.18 "Hg19 mi
10:00 AM75 °FSunny.N/A53%30.18 "Hg19 mi
Weather by CustomWeather, © 2015

See weather overviewHow to use our weather pages